Weather History for Fredericksburg, TX

Change the Weather History Date:

Monday, May 19, 2014

  Actual Average (KSAT) Record (KSAT)
Temperature  
Mean Temperature 73 °F 78 °F  
Max Temperature 84 °F 88 °F 101 °F (1989)
Min Temperature 62 °F 68 °F 52 °F (1986)
Degree Days  
Heating Degree Days 0 0  
Month to date heating degree days 0  
Since 1 July heating degree days 1494  
Cooling Degree Days 8 13  
Month to date cooling degree days 201  
Year to date cooling degree days 460  
Growing Degree Days 23 (Base 50)    
Moisture  
Dew Point 57 °F    
Average Humidity 62    
Maximum Humidity 83    
Minimum Humidity 38    
Precipitation  
Precipitation 0.00 in 0.13 in 3.21 in (1987)
Month to date precipitation 2.30  
Year to date precipitation 10.26  
Snow  
Snow 0.00 in - - ()
Month to date snowfall  
Since 1 July snowfall  
Snow Depth -    
Sea Level Pressure  
Sea Level Pressure 30.02 in    
Wind  
Wind Speed 13 mph (South)    
Max Wind Speed 18 mph    
Max Gust Speed 24 mph    
Visibility 10 miles    
Events      
T = Trace of Precipitation, MM = Missing Value Source: NWS Daily Summary

Daily Weather History Graph

Daily Weather History Graph

Search for Another Location

Airport:

Trip Planner

Search our weather history database for the weather conditions in past years. The results will help you decide how hot, cold, wet, or windy it might be!

Date:

Astronomy

May. 19, 2014 Rise Set
Actual Time 6:39 AM CDT 8:25 PM CDT
Civil Twilight 6:12 AM CDT 8:51 PM CDT
Nautical Twilight 5:41 AM CDT 9:23 PM CDT
Astronomical Twilight 5:07 AM CDT 9:57 PM CDT
Moon 12:19 AM CDT (5/19) 11:32 AM CDT (5/19)
Length of Visible Light 14h 38m
Length of Day
13h 45m
Waning Gibbous, 71% of the Moon is Illuminated
May 19
Waning Gibbous
May 21
Last Quarter
May 28
New
Jun 5
First Quarter
Jun 12
Full

Hourly Weather History & Observations

Time (CDT) Temp. Heat Index Dew Point Humidity Pressure Visibility Wind Dir Wind Speed Gust Speed Precip Events Conditions
12:15 AM 66.6 °F - 55.9 °F 69% 30.04 in 10.0 mi SSE 8.1 mph 19.6 mph N/A   Unknown
12:35 AM 65.8 °F - 55.9 °F 70% 30.04 in 10.0 mi South 9.2 mph - N/A   Unknown
12:55 AM 65.5 °F - 56.3 °F 72% 30.03 in 10.0 mi South 11.5 mph 17.3 mph N/A   Unknown
1:15 AM 64.8 °F - 56.8 °F 75% 30.02 in 10.0 mi South 12.7 mph 16.1 mph N/A   Unknown
1:35 AM 64.4 °F - 57.4 °F 78% 30.02 in 10.0 mi South 13.8 mph 20.7 mph N/A   Unknown
1:55 AM 63.9 °F - 57.2 °F 79% 30.02 in 10.0 mi South 12.7 mph 19.6 mph N/A   Unknown
2:15 AM 63.5 °F - 57.2 °F 80% 30.02 in 10.0 mi South 11.5 mph 16.1 mph N/A   Unknown
2:35 AM 63.5 °F - 57.0 °F 79% 30.02 in 10.0 mi South 10.4 mph - N/A   Unknown
2:55 AM 63.5 °F - 57.2 °F 80% 30.02 in 10.0 mi South 13.8 mph - N/A   Unknown
3:15 AM 63.0 °F - 57.4 °F 82% 30.02 in 10.0 mi South 13.8 mph - N/A   Unknown
3:35 AM 62.6 °F - 57.4 °F 83% 30.01 in 10.0 mi South 10.4 mph - N/A   Unknown
3:55 AM 62.8 °F - 57.6 °F 83% 30.01 in 10.0 mi South 10.4 mph 19.6 mph N/A   Unknown
4:15 AM 63.0 °F - 57.7 °F 83% 30.01 in 10.0 mi South 11.5 mph 19.6 mph N/A   Unknown
4:35 AM 63.3 °F - 57.9 °F 83% 30.01 in 10.0 mi South 12.7 mph 18.4 mph N/A   Unknown
4:55 AM 63.7 °F - 57.7 °F 81% 30.01 in 10.0 mi South 13.8 mph 21.9 mph N/A   Unknown
5:15 AM 63.7 °F - 57.6 °F 80% 30.01 in 10.0 mi South 11.5 mph 20.7 mph N/A   Unknown
5:35 AM 63.5 °F - 57.2 °F 80% 30.01 in 10.0 mi South 15.0 mph 21.9 mph N/A   Unknown
5:55 AM 63.5 °F - 56.7 °F 78% 30.01 in 10.0 mi South 16.1 mph 24.2 mph N/A   Unknown
6:15 AM 63.9 °F - 57.2 °F 79% 30.01 in 10.0 mi South 16.1 mph 21.9 mph N/A   Unknown
6:35 AM 64.2 °F - 57.2 °F 78% 30.02 in 10.0 mi South 15.0 mph 21.9 mph N/A   Unknown
6:55 AM 64.4 °F - 57.6 °F 78% 30.02 in 10.0 mi South 12.7 mph - N/A   Unknown
7:15 AM 64.4 °F - 57.6 °F 78% 30.03 in 10.0 mi South 17.3 mph - N/A   Unknown
7:35 AM 64.4 °F - 57.4 °F 78% 30.04 in 10.0 mi South 11.5 mph 23.0 mph N/A   Unknown
8:55 AM 65.1 °F - 58.3 °F 78% 30.06 in 10.0 mi South 13.8 mph 23.0 mph N/A   Unknown
9:35 AM 65.8 °F - 58.5 °F 77% 30.06 in 10.0 mi South 17.3 mph - N/A   Unknown
9:55 AM 66.6 °F - 58.3 °F 75% 30.06 in 10.0 mi South 15.0 mph 23.0 mph N/A   Unknown
10:15 AM 67.8 °F - 59.0 °F 73% 30.06 in 10.0 mi South 15.0 mph 21.9 mph N/A   Unknown
10:35 AM 68.9 °F - 59.4 °F 72% 30.06 in 10.0 mi South 18.4 mph 23.0 mph N/A   Unknown
10:55 AM 69.4 °F - 59.4 °F 70% 30.07 in 10.0 mi SSW 15.0 mph 24.2 mph N/A   Unknown
11:15 AM 70.3 °F - 59.4 °F 68% 30.07 in 10.0 mi SSW 12.7 mph 21.9 mph N/A   Unknown
11:35 AM 72.0 °F - 59.4 °F 64% 30.06 in 10.0 mi South 13.8 mph 19.6 mph N/A   Unknown
11:55 AM 72.3 °F - 59.2 °F 63% 30.06 in 10.0 mi South 15.0 mph 21.9 mph N/A   Unknown
12:15 PM 74.3 °F - 59.9 °F 61% 30.05 in 10.0 mi SSW 17.3 mph 21.9 mph N/A   Unknown
12:35 PM 75.2 °F - 59.5 °F 58% 30.05 in 10.0 mi South 18.4 mph 24.2 mph N/A   Unknown
12:55 PM 75.7 °F - 59.9 °F 58% 30.04 in 10.0 mi South 13.8 mph 23.0 mph N/A   Unknown
1:15 PM 76.3 °F - 60.3 °F 57% 30.04 in 10.0 mi South 15.0 mph 21.9 mph N/A   Unknown
1:35 PM 77.0 °F - 60.4 °F 56% 30.03 in 10.0 mi South 16.1 mph - N/A   Unknown
1:55 PM 78.3 °F - 59.5 °F 52% 30.03 in 10.0 mi South 16.1 mph 23.0 mph N/A   Unknown
2:15 PM 80.1 °F 80.7 °F 59.0 °F 48% 30.02 in 10.0 mi SSE 15.0 mph 21.9 mph N/A   Unknown
2:35 PM 81.3 °F 81.4 °F 58.1 °F 45% 30.01 in 10.0 mi South 15.0 mph 23.0 mph N/A   Unknown
2:55 PM 81.5 °F 81.4 °F 57.0 °F 43% 30.01 in 10.0 mi South 12.7 mph 20.7 mph N/A   Unknown
3:15 PM 82.6 °F 82.3 °F 57.7 °F 43% 30.00 in 10.0 mi SSE 12.7 mph 23.0 mph N/A   Unknown
3:35 PM 82.8 °F 82.4 °F 57.2 °F 42% 30.00 in 10.0 mi South 17.3 mph 21.9 mph N/A   Unknown
3:55 PM 83.1 °F 82.6 °F 56.8 °F 41% 29.99 in 10.0 mi South 16.1 mph 23.0 mph N/A   Unknown
4:15 PM 83.5 °F 82.8 °F 56.8 °F 40% 29.99 in 10.0 mi South 12.7 mph 23.0 mph N/A   Unknown
4:35 PM 83.3 °F 82.5 °F 56.1 °F 39% 29.99 in 10.0 mi SSE 15.0 mph 20.7 mph N/A   Unknown
4:55 PM 84.0 °F 83.0 °F 55.9 °F 38% 29.99 in 10.0 mi SSE 12.7 mph 18.4 mph N/A   Unknown
5:15 PM 83.5 °F 82.5 °F 55.6 °F 38% 29.99 in 10.0 mi SSE 13.8 mph 19.6 mph N/A   Unknown
5:55 PM 82.9 °F 82.0 °F 54.9 °F 38% 29.98 in 10.0 mi SSE 15.0 mph 20.7 mph N/A   Unknown
6:15 PM 82.4 °F 81.7 °F 55.2 °F 39% 29.97 in 10.0 mi South 12.7 mph 23.0 mph N/A   Unknown
6:35 PM 82.4 °F 81.8 °F 55.9 °F 40% 29.98 in 10.0 mi South 15.0 mph 19.6 mph N/A   Unknown
6:55 PM 81.5 °F 81.1 °F 55.6 °F 41% 29.97 in 10.0 mi SSE 13.8 mph 21.9 mph N/A   Unknown
7:15 PM 80.6 °F 80.5 °F 55.6 °F 42% 29.97 in 10.0 mi South 15.0 mph 23.0 mph N/A   Unknown
7:35 PM 79.7 °F - 55.8 °F 44% 29.97 in 10.0 mi SSE 13.8 mph 20.7 mph N/A   Unknown
7:55 PM 78.4 °F - 55.9 °F 46% 29.98 in 10.0 mi South 12.7 mph 18.4 mph N/A   Unknown
8:15 PM 77.4 °F - 56.8 °F 49% 29.99 in 10.0 mi SSE 9.2 mph 17.3 mph N/A   Unknown
8:35 PM 76.3 °F - 56.5 °F 50% 29.99 in 10.0 mi SSE 5.8 mph - N/A   Unknown
8:55 PM 75.6 °F - 56.3 °F 51% 29.99 in 10.0 mi SSE 9.2 mph - N/A   Unknown
9:15 PM 74.7 °F - 55.4 °F 51% 30.00 in 10.0 mi SSE 11.5 mph - N/A   Unknown
9:35 PM 73.9 °F - 53.8 °F 49% 30.00 in 10.0 mi SSE 10.4 mph 18.4 mph N/A   Unknown
9:55 PM 73.0 °F - 52.7 °F 49% 30.01 in 10.0 mi SSE 11.5 mph 19.6 mph N/A   Unknown
10:15 PM 72.0 °F - 53.1 °F 51% 30.01 in 10.0 mi SSE 12.7 mph 19.6 mph N/A   Unknown
10:35 PM 70.7 °F - 53.6 °F 55% 30.02 in 10.0 mi South 12.7 mph 17.3 mph N/A   Unknown
10:55 PM 70.2 °F - 54.5 °F 57% 30.02 in 10.0 mi South 12.7 mph 17.3 mph N/A   Unknown
11:15 PM 69.6 °F - 54.9 °F 59% 30.03 in 10.0 mi South 10.4 mph 19.6 mph N/A   Unknown
11:55 PM 68.2 °F - 55.6 °F 64% 30.03 in 10.0 mi South 16.1 mph 21.9 mph N/A   Unknown